Погода в Сотелле

Австралия     30°21′46″S   153°06′09″E
темп.,
°C
ветер,
м/с
пор.,
м/с
влажн.,
%
обл.,
%
осадки,
мм/ч
давл.,
гПа
погр.,
м
23 апреля, пт
пт2301:00+8з22590 0.0 101644
04:00+8з21570 0.0 101730
07:00+8зсз11570 0.0 101834
10:00+18в11320 0.0 10191005
13:00+19в22340 0.0 10161257
16:00+16в23520 0.0 1017484
19:00+10з11760 0.0 102027
22:00+10зсз11740 0.0 102226
24 апреля, сб
сб2401:00+10зсз21720 0.0 102129
04:00+9зсз21710 0.0 102125
07:00+10зсз11693 0.0 102331
10:00+19всв11435 0.0 1022953
13:00+20в224382 0.0 10201524
16:00+17вюв226327 0.0 1020518
19:00+12зсз118626 0.0 102225
22:00+11зсз118415 0.0 102323
25 апреля, вс
вс2501:00+11зсз11850 0.0 102229
04:00+11зсз11890 0.0 102221
07:00+12з11840 0.0 102333
10:00+19вюв11550 0.0 1022930
13:00+20вюв325117 0.0 10201505
16:00+17юв236613 0.0 1021658
19:00+13зюз128914 0.0 102347
22:00+13з129058 0.0 102445
26 апреля, пн
пн2601:00+13зюз119017 0.0 102333
04:00+11з12946 0.0 102334
07:00+12зюз12890 0.0 102457
10:00+19ю24598 0.0 10241138
13:00+19ююв335951 0.1 10221262
16:00+18ююв24713 0.2 1022696
19:00+13зюз129715 0.1 102543
22:00+12зюз129850 0.6 102570
27 апреля, вт
вт2701:00+13зюз119742 0.3 102444
04:00+12зюз129813 0.3 102449
07:00+12зюз139511 0.0 102573
10:00+19ю366111 0.0 10251147
13:00+21ююв355330 0.0 10231609
16:00+18ююв37680 0.1 10231093
19:00+14ююз27923 0.1 1024241
22:00+12юз159733 0.1 1025159